Time,TemperatureF,DewpointF,PressureIn,WindDirection,WindDirectionDegrees,WindSpeedMPH,WindSpeedGustMPH,Humidity,HourlyPrecipIn,Conditions,Clouds,dailyrainin,SolarRadiationWatts/m^2,SoftwareType,DateUTC
2013-06-20 00:11:00,89.0,47.0,29.90,South,171,19.0,29.0,23,-99.99,,,-99.99,0.000000,,2013-06-20 06:11:00,
2013-06-20 00:22:00,88.0,47.0,29.90,South,171,19.0,30.0,24,-99.99,,,-99.99,0.000000,,2013-06-20 06:22:00,
2013-06-20 00:33:00,88.0,47.0,29.90,South,171,19.0,30.0,24,-99.99,,,-99.99,0.000000,,2013-06-20 06:33:00,
2013-06-20 00:43:00,88.0,48.0,29.91,South,174,20.0,32.0,24,-99.99,,,-99.99,0.000000,,2013-06-20 06:43:00,
2013-06-20 00:53:00,88.0,47.0,29.92,South,179,17.0,31.0,24,-99.99,,,-99.99,0.000000,,2013-06-20 06:53:00,
2013-06-20 01:01:00,88.0,47.0,29.92,South,179,17.0,31.0,24,-99.99,,,-99.99,0.000000,,2013-06-20 07:01:00,
2013-06-20 01:12:00,87.0,47.0,29.93,South,180,20.0,32.0,25,-99.99,,,-99.99,0.000000,,2013-06-20 07:12:00,
2013-06-20 01:22:00,87.0,47.0,29.93,South,179,18.0,31.0,25,-99.99,,,-99.99,0.000000,,2013-06-20 07:22:00,
2013-06-20 01:34:00,87.0,47.0,29.93,South,179,18.0,31.0,25,-99.99,,,-99.99,0.000000,,2013-06-20 07:34:00,
2013-06-20 01:44:00,86.0,48.0,29.94,South,180,16.0,27.0,26,-99.99,,,-99.99,0.000000,,2013-06-20 07:44:00,
2013-06-20 01:53:00,85.0,48.0,29.94,South,174,15.0,24.0,27,-99.99,,,-99.99,0.000000,,2013-06-20 07:53:00,
2013-06-20 02:02:00,85.0,48.0,29.94,South,174,15.0,24.0,27,-99.99,,,-99.99,0.000000,,2013-06-20 08:02:00,
2013-06-20 02:11:00,85.0,48.0,29.94,South,180,14.0,23.0,27,-99.99,,,-99.99,0.000000,,2013-06-20 08:11:00,
2013-06-20 02:22:00,84.0,48.0,29.95,South,185,12.0,20.0,28,-99.99,,,-99.99,0.000000,,2013-06-20 08:22:00,
2013-06-20 02:34:00,84.0,48.0,29.95,South,185,12.0,20.0,28,-99.99,,,-99.99,0.000000,,2013-06-20 08:34:00,
2013-06-20 02:43:00,84.0,48.0,29.95,South,179,10.0,18.0,28,-99.99,,,-99.99,0.000000,,2013-06-20 08:43:00,
2013-06-20 02:53:00,83.0,48.0,29.95,South,185,8.0,13.0,29,-99.99,,,-99.99,0.000000,,2013-06-20 08:53:00,
2013-06-20 03:02:00,83.0,48.0,29.95,South,185,8.0,13.0,29,-99.99,,,-99.99,0.000000,,2013-06-20 09:02:00,
2013-06-20 03:12:00,83.0,48.0,29.95,South,184,7.0,12.0,29,-99.99,,,-99.99,0.000000,,2013-06-20 09:12:00,
2013-06-20 03:22:00,82.0,48.0,29.95,South,185,5.0,8.0,30,-99.99,,,-99.99,0.000000,,2013-06-20 09:22:00,
2013-06-20 03:33:00,82.0,48.0,29.95,South,185,5.0,8.0,30,-99.99,,,-99.99,0.000000,,2013-06-20 09:33:00,
2013-06-20 03:42:00,82.0,48.0,29.95,South,183,5.0,8.0,30,-99.99,,,-99.99,0.000000,,2013-06-20 09:42:00,
2013-06-20 03:52:00,81.0,48.0,29.95,South,172,5.0,7.0,31,-99.99,,,-99.99,0.000000,,2013-06-20 09:52:00,
2013-06-20 04:01:00,81.0,48.0,29.95,South,172,5.0,7.0,31,-99.99,,,-99.99,0.000000,,2013-06-20 10:01:00,
2013-06-20 04:11:00,81.0,48.0,29.95,South,175,5.0,10.0,32,-99.99,,,-99.99,0.000000,,2013-06-20 10:11:00,
2013-06-20 04:22:00,80.0,48.0,29.95,South,179,6.0,10.0,32,-99.99,,,-99.99,0.000000,,2013-06-20 10:22:00,
2013-06-20 04:33:00,80.0,48.0,29.95,South,179,6.0,10.0,32,-99.99,,,-99.99,0.000000,,2013-06-20 10:33:00,
2013-06-20 04:43:00,79.0,48.0,29.95,South,185,7.0,12.0,34,-99.99,,,-99.99,0.000000,,2013-06-20 10:43:00,
2013-06-20 04:53:00,78.0,48.0,29.95,South,188,9.0,15.0,34,-99.99,,,-99.99,0.000000,,2013-06-20 10:53:00,
2013-06-20 05:02:00,78.0,48.0,29.95,South,188,9.0,15.0,34,-99.99,,,-99.99,0.000000,,2013-06-20 11:02:00,
2013-06-20 05:11:00,78.0,48.0,29.95,South,190,9.0,14.0,35,-99.99,,,-99.99,0.000000,,2013-06-20 11:11:00,
2013-06-20 05:22:00,78.0,48.0,29.95,SSW,195,11.0,16.0,35,-99.99,,,-99.99,0.000000,,2013-06-20 11:22:00,
2013-06-20 05:34:00,78.0,48.0,29.95,SSW,195,11.0,16.0,35,-99.99,,,-99.99,0.000000,,2013-06-20 11:34:00,
2013-06-20 05:42:00,78.0,48.0,29.96,SSW,199,10.0,14.0,35,-99.99,,,-99.99,0.000000,,2013-06-20 11:42:00,
2013-06-20 05:53:00,78.0,48.0,29.96,SSW,199,9.0,15.0,35,-99.99,,,-99.99,0.000000,,2013-06-20 11:53:00,
2013-06-20 06:02:00,78.0,48.0,29.96,SSW,199,9.0,15.0,35,-99.99,,,-99.99,0.000000,,2013-06-20 12:02:00,
2013-06-20 06:11:00,77.0,48.0,29.97,SSW,199,8.0,14.0,35,-99.99,,,-99.99,0.000000,,2013-06-20 12:11:00,
2013-06-20 06:22:00,77.0,48.0,29.97,SSW,196,9.0,15.0,36,-99.99,,,-99.99,1.390000,,2013-06-20 12:22:00,
2013-06-20 06:34:00,77.0,48.0,29.97,SSW,196,9.0,15.0,36,-99.99,,,-99.99,1.390000,,2013-06-20 12:34:00,
2013-06-20 06:43:00,77.0,48.0,29.97,South,189,10.0,16.0,36,-99.99,,,-99.99,7.670000,,2013-06-20 12:43:00,
2013-06-20 06:53:00,77.0,48.0,29.98,South,185,11.0,17.0,36,-99.99,,,-99.99,28.590000,,2013-06-20 12:53:00,
2013-06-20 07:02:00,77.0,48.0,29.98,South,185,11.0,17.0,36,-99.99,,,-99.99,28.590000,,2013-06-20 13:02:00,
2013-06-20 07:11:00,78.0,48.0,29.98,South,182,11.0,18.0,35,-99.99,,,-99.99,57.880001,,2013-06-20 13:11:00,
2013-06-20 07:22:00,79.0,48.0,29.99,South,186,11.0,18.0,34,-99.99,,,-99.99,90.650002,,2013-06-20 13:22:00,
2013-06-20 07:33:00,79.0,48.0,29.99,South,186,11.0,18.0,34,-99.99,,,-99.99,90.650002,,2013-06-20 13:33:00,
2013-06-20 07:42:00,80.0,48.0,29.99,SSW,194,10.0,16.0,33,-99.99,,,-99.99,150.619995,,2013-06-20 13:42:00,
2013-06-20 07:53:00,80.0,49.0,30.00,South,188,11.0,19.0,33,-99.99,,,-99.99,198.740005,,2013-06-20 13:53:00,
2013-06-20 08:01:00,80.0,49.0,30.00,South,188,11.0,19.0,33,-99.99,,,-99.99,198.740005,,2013-06-20 14:01:00,
2013-06-20 08:11:00,81.0,49.0,30.00,SSW,192,10.0,16.0,32,-99.99,,,-99.99,238.490005,,2013-06-20 14:11:00,
2013-06-20 08:22:00,81.0,49.0,30.01,South,188,12.0,17.0,32,-99.99,,,-99.99,296.369995,,2013-06-20 14:22:00,
2013-06-20 08:32:00,81.0,49.0,30.01,South,188,12.0,17.0,32,-99.99,,,-99.99,296.369995,,2013-06-20 14:32:00,
2013-06-20 08:42:00,82.0,49.0,30.01,South,180,11.0,17.0,31,-99.99,,,-99.99,350.059998,,2013-06-20 14:42:00,
2013-06-20 08:53:00,83.0,49.0,30.02,South,179,11.0,17.0,30,-99.99,,,-99.99,401.660004,,2013-06-20 14:53:00,
2013-06-20 09:02:00,83.0,49.0,30.02,South,179,11.0,17.0,30,-99.99,,,-99.99,401.660004,,2013-06-20 15:02:00,
2013-06-20 09:11:00,83.0,49.0,30.02,South,175,11.0,16.0,30,-99.99,,,-99.99,327.049988,,2013-06-20 15:11:00,
2013-06-20 09:22:00,82.0,49.0,30.02,SSE,167,10.0,14.0,31,-99.99,,,-99.99,209.899994,,2013-06-20 15:22:00,
2013-06-20 09:33:00,82.0,49.0,30.02,SSE,167,10.0,14.0,31,-99.99,,,-99.99,209.899994,,2013-06-20 15:33:00,
2013-06-20 09:43:00,84.0,49.0,30.02,South,172,10.0,18.0,29,-99.99,,,-99.99,419.790009,,2013-06-20 15:43:00,
2013-06-20 09:53:00,87.0,47.0,30.02,SSW,192,12.0,20.0,25,-99.99,,,-99.99,557.169983,,2013-06-20 15:53:00,
2013-06-20 10:01:00,87.0,47.0,30.02,SSW,192,12.0,20.0,25,-99.99,,,-99.99,557.169983,,2013-06-20 16:01:00,
2013-06-20 10:11:00,89.0,44.0,30.01,SSW,202,14.0,23.0,21,-99.99,,,-99.99,591.340027,,2013-06-20 16:11:00,
2013-06-20 10:22:00,89.0,44.0,30.01,SSW,202,14.0,23.0,21,-99.99,,,-99.99,591.340027,,2013-06-20 16:22:00,
2013-06-20 10:33:00,89.0,44.0,30.01,SSW,202,14.0,23.0,21,-99.99,,,-99.99,591.340027,,2013-06-20 16:33:00,
2013-06-20 10:42:00,90.0,42.0,30.00,South,190,15.0,23.0,18,-99.99,,,-99.99,669.440002,,2013-06-20 16:42:00,
2013-06-20 10:52:00,91.0,41.0,30.00,SSW,194,15.0,22.0,17,-99.99,,,-99.99,669.440002,,2013-06-20 16:52:00,
2013-06-20 11:01:00,91.0,41.0,30.00,SSW,194,15.0,22.0,17,-99.99,,,-99.99,669.440002,,2013-06-20 17:01:00,
2013-06-20 11:11:00,91.0,40.0,30.00,SSW,200,13.0,20.0,17,-99.99,,,-99.99,481.859985,,2013-06-20 17:11:00,
2013-06-20 11:22:00,91.0,39.0,30.00,South,184,12.0,19.0,16,-99.99,,,-99.99,545.309998,,2013-06-20 17:22:00,
2013-06-20 11:32:00,91.0,39.0,30.00,South,184,12.0,19.0,16,-99.99,,,-99.99,545.309998,,2013-06-20 17:32:00,
2013-06-20 11:43:00,93.0,36.0,30.00,South,188,12.0,19.0,14,-99.99,,,-99.99,752.419983,,2013-06-20 17:43:00,
2013-06-20 11:53:00,93.0,37.0,30.00,South,178,12.0,22.0,14,-99.99,,,-99.99,764.969971,,2013-06-20 17:53:00,
2013-06-20 12:01:00,93.0,37.0,30.00,South,178,12.0,22.0,14,-99.99,,,-99.99,764.969971,,2013-06-20 18:01:00,
2013-06-20 12:11:00,94.0,37.0,30.00,South,173,14.0,28.0,14,-99.99,,,-99.99,785.200012,,2013-06-20 18:11:00,
2013-06-20 12:22:00,94.0,38.0,29.99,South,169,15.0,25.0,13,-99.99,,,-99.99,822.159973,,2013-06-20 18:22:00,
2013-06-20 12:33:00,94.0,38.0,29.99,South,169,15.0,25.0,13,-99.99,,,-99.99,822.159973,,2013-06-20 18:33:00,
2013-06-20 12:43:00,95.0,38.0,29.98,South,191,15.0,26.0,14,-99.99,,,-99.99,840.289978,,2013-06-20 18:43:00,
2013-06-20 12:53:00,96.0,38.0,29.98,SSW,201,15.0,26.0,13,-99.99,,,-99.99,829.130005,,2013-06-20 18:53:00,
2013-06-20 13:01:00,96.0,38.0,29.98,SSW,201,15.0,26.0,13,-99.99,,,-99.99,829.130005,,2013-06-20 19:01:00,
2013-06-20 13:11:00,96.0,38.0,29.98,SSW,197,13.0,25.0,13,-99.99,,,-99.99,789.380005,,2013-06-20 19:11:00,
2013-06-20 13:22:00,96.0,38.0,29.97,South,188,13.0,22.0,13,-99.99,,,-99.99,327.049988,,2013-06-20 19:22:00,
2013-06-20 13:34:00,96.0,38.0,29.97,South,188,13.0,22.0,13,-99.99,,,-99.99,327.049988,,2013-06-20 19:34:00,
2013-06-20 13:43:00,97.0,38.0,29.97,SSW,197,13.0,23.0,13,-99.99,,,-99.99,410.730011,,2013-06-20 19:43:00,
2013-06-20 13:52:00,97.0,38.0,29.96,SSW,197,12.0,22.0,12,-99.99,,,-99.99,762.880005,,2013-06-20 19:52:00,
2013-06-20 14:02:00,97.0,38.0,29.96,SSW,197,12.0,22.0,12,-99.99,,,-99.99,762.880005,,2013-06-20 20:02:00,
2013-06-20 14:11:00,97.0,38.0,29.96,SSW,197,12.0,22.0,12,-99.99,,,-99.99,762.880005,,2013-06-20 20:11:00,
2013-06-20 14:22:00,98.0,38.0,29.95,WSW,247,15.0,27.0,12,-99.99,,,-99.99,830.520020,,2013-06-20 20:22:00,
2013-06-20 14:33:00,98.0,38.0,29.95,WSW,247,15.0,27.0,12,-99.99,,,-99.99,830.520020,,2013-06-20 20:33:00,
2013-06-20 14:42:00,98.0,38.0,29.94,WSW,251,12.0,27.0,12,-99.99,,,-99.99,745.450012,,2013-06-20 20:42:00,
2013-06-20 15:01:00,98.0,38.0,29.94,SW,233,13.0,31.0,12,-99.99,,,-99.99,716.859985,,2013-06-20 21:01:00,